AAL668 CYYZ-KDCA

Flight info

Callsign AAL668
Flight time 0h 56m
Altitude 33000
Route RIGUS5 PSB SKILS5
Aircraft A320/M-SDE3FGHIRWY/LB1

Departure

Time 2026-05-05 20:03
Airport Toronto Pearson International Airport (CYYZ)

Arrival

Time 2026-05-05 21:00
Airport Ronald Reagan Washington National Airport (KDCA)
Time Latitude Longitude Altitude Speed Heading
2026-05-05 19:50 43.68662 -79.62620 565 ft 0 kts 336°
2026-05-05 19:56 43.68653 -79.62615 561 ft 3 kts 336°
2026-05-05 19:56 43.68635 -79.62604 568 ft 3 kts 336°
2026-05-05 19:57 43.68620 -79.62595 567 ft 3 kts 319°
2026-05-05 19:57 43.68613 -79.62588 568 ft 3 kts 274°
2026-05-05 19:57 43.68622 -79.62559 568 ft 3 kts 234°
2026-05-05 19:57 43.68628 -79.62546 568 ft 2 kts 234°
2026-05-05 19:58 43.68638 -79.62529 571 ft 1 kts 234°
2026-05-05 19:58 43.68638 -79.62527 571 ft 0 kts 234°
2026-05-05 19:59 43.68633 -79.62536 564 ft 6 kts 227°
2026-05-05 20:00 43.68567 -79.62593 568 ft 14 kts 209°
2026-05-05 20:00 43.68487 -79.62671 565 ft 14 kts 225°
2026-05-05 20:00 43.68505 -79.62783 562 ft 16 kts 314°
2026-05-05 20:00 43.68616 -79.62926 561 ft 27 kts 317°
2026-05-05 20:01 43.68767 -79.63124 568 ft 32 kts 316°
2026-05-05 20:01 43.68932 -79.63342 566 ft 31 kts 317°
2026-05-05 20:01 43.69063 -79.63511 567 ft 15 kts 316°
2026-05-05 20:01 43.69151 -79.63482 567 ft 17 kts 45°
2026-05-05 20:02 43.69281 -79.63421 563 ft 22 kts
2026-05-05 20:02 43.69405 -79.63503 563 ft 18 kts 278°
2026-05-05 20:02 43.69321 -79.63645 564 ft 30 kts 227°
2026-05-05 20:02 43.69014 -79.64090 573 ft 96 kts 226°
2026-05-05 20:03 43.68423 -79.64949 571 ft 148 kts 226°
2026-05-05 20:03 43.67639 -79.66067 893 ft 164 kts 230°
2026-05-05 20:03 43.66939 -79.67283 1642 ft 161 kts 240°
2026-05-05 20:03 43.66290 -79.68544 2313 ft 164 kts 234°
2026-05-05 20:04 43.65261 -79.69419 2643 ft 193 kts 195°
2026-05-05 20:04 43.63817 -79.69445 2919 ft 221 kts 182°
2026-05-05 20:04 43.62204 -79.69332 3295 ft 241 kts 181°
2026-05-05 20:04 43.60546 -79.69187 4253 ft 236 kts 180°
2026-05-05 20:05 43.58916 -79.69042 5198 ft 233 kts 183°
2026-05-05 20:05 43.57300 -79.68903 6134 ft 232 kts 185°
2026-05-05 20:05 43.55697 -79.68771 7015 ft 228 kts 186°
2026-05-05 20:05 43.54133 -79.68648 7960 ft 224 kts 186°
2026-05-05 20:06 43.52577 -79.68535 8808 ft 224 kts 187°
2026-05-05 20:06 43.51015 -79.68424 9620 ft 226 kts 187°
2026-05-05 20:06 43.49438 -79.68310 10355 ft 228 kts 187°
2026-05-05 20:06 43.48385 -79.68235 10833 ft 229 kts 188°
2026-05-05 20:07 43.46782 -79.68126 11549 ft 232 kts 188°
2026-05-05 20:07 43.45162 -79.68014 12259 ft 235 kts 188°
2026-05-05 20:07 43.43522 -79.67899 12960 ft 237 kts 189°
2026-05-05 20:07 43.41862 -79.67780 13662 ft 240 kts 189°
2026-05-05 20:08 43.40191 -79.67690 14276 ft 241 kts 191°
2026-05-05 20:08 43.38504 -79.67644 14883 ft 244 kts 191°
2026-05-05 20:08 43.36800 -79.67615 15482 ft 246 kts 191°
2026-05-05 20:08 43.35075 -79.67589 16056 ft 250 kts 191°
2026-05-05 20:09 43.33325 -79.67558 16653 ft 253 kts 191°
2026-05-05 20:09 43.31552 -79.67525 17253 ft 256 kts 191°
2026-05-05 20:09 43.29759 -79.67490 17846 ft 260 kts 191°
2026-05-05 20:09 43.27941 -79.67452 18388 ft 263 kts 191°
2026-05-05 20:10 43.26104 -79.67412 18911 ft 265 kts 191°
2026-05-05 20:10 43.24252 -79.67367 19429 ft 268 kts 191°
2026-05-05 20:10 43.22322 -79.67341 19589 ft 286 kts 191°
2026-05-05 20:10 43.20273 -79.67331 19714 ft 303 kts 190°
2026-05-05 20:11 43.18103 -79.67324 19840 ft 320 kts 190°
2026-05-05 20:11 43.15820 -79.67311 19924 ft 336 kts 188°
2026-05-05 20:11 43.13425 -79.67288 20050 ft 352 kts 188°
2026-05-05 20:11 43.10922 -79.67251 20178 ft 367 kts 188°
2026-05-05 20:12 43.08314 -79.67204 20308 ft 381 kts 187°
2026-05-05 20:12 43.05633 -79.67151 20616 ft 389 kts 187°
2026-05-05 20:12 43.02913 -79.67098 21058 ft 392 kts 187°
2026-05-05 20:12 43.00174 -79.67048 21516 ft 395 kts 188°
2026-05-05 20:13 42.97416 -79.67003 21968 ft 398 kts 188°
2026-05-05 20:13 42.94642 -79.66961 22378 ft 400 kts 188°
2026-05-05 20:13 42.91847 -79.66920 22794 ft 403 kts 188°
2026-05-05 20:13 42.89036 -79.66881 23195 ft 405 kts 188°
2026-05-05 20:14 42.86207 -79.66860 23555 ft 406 kts 190°
2026-05-05 20:14 42.83401 -79.67126 23878 ft 405 kts 193°
2026-05-05 20:14 42.80585 -79.67437 24194 ft 407 kts 193°
2026-05-05 20:14 42.77751 -79.67753 24518 ft 410 kts 193°
2026-05-05 20:15 42.74901 -79.68068 24779 ft 413 kts 193°
2026-05-05 20:15 42.72027 -79.68381 25055 ft 416 kts 193°
2026-05-05 20:15 42.69133 -79.68696 25348 ft 418 kts 193°
2026-05-05 20:15 42.66223 -79.69012 25646 ft 421 kts 193°
2026-05-05 20:16 42.63296 -79.69328 25940 ft 423 kts 193°
2026-05-05 20:16 42.60357 -79.69647 26226 ft 425 kts 193°
2026-05-05 20:16 42.57405 -79.69967 26515 ft 427 kts 194°
2026-05-05 20:16 42.54440 -79.70287 26774 ft 428 kts 193°
2026-05-05 20:17 42.51503 -79.70604 27085 ft 429 kts 193°
2026-05-05 20:17 42.48523 -79.70924 27356 ft 430 kts 193°
2026-05-05 20:17 42.45533 -79.71246 27618 ft 432 kts 193°
2026-05-05 20:17 42.42535 -79.71567 27864 ft 433 kts 193°
2026-05-05 20:18 42.39525 -79.71888 28100 ft 435 kts 193°
2026-05-05 20:18 42.36479 -79.71980 28381 ft 444 kts 185°
2026-05-05 20:18 42.33384 -79.71339 28720 ft 456 kts 175°
2026-05-05 20:18 42.30353 -79.69884 29059 ft 470 kts 163°
2026-05-05 20:19 42.27504 -79.67596 29395 ft 484 kts 152°
2026-05-05 20:19 42.24937 -79.64574 29730 ft 493 kts 144°
2026-05-05 20:19 42.22455 -79.61385 30024 ft 492 kts 144°
2026-05-05 20:19 42.19973 -79.58209 30287 ft 492 kts 145°
2026-05-05 20:20 42.17488 -79.55043 30583 ft 492 kts 145°
2026-05-05 20:20 42.15000 -79.51884 30851 ft 491 kts 145°
2026-05-05 20:20 42.12506 -79.48727 31084 ft 491 kts 144°
2026-05-05 20:20 42.10025 -79.45587 31440 ft 488 kts 144°
2026-05-05 20:21 42.07555 -79.42460 31754 ft 487 kts 144°
2026-05-05 20:21 42.05090 -79.39341 32016 ft 487 kts 144°
2026-05-05 20:21 42.02621 -79.36219 32308 ft 487 kts 144°
2026-05-05 20:21 42.00159 -79.33103 32607 ft 486 kts 144°
2026-05-05 20:22 41.97693 -79.29982 32815 ft 487 kts 144°
2026-05-05 20:22 41.92739 -79.23736 32843 ft 489 kts 144°
2026-05-05 20:23 41.87767 -79.17495 32835 ft 490 kts 144°
2026-05-05 20:23 41.82765 -79.11219 32826 ft 492 kts 143°
2026-05-05 20:24 41.77803 -79.04994 32813 ft 492 kts 143°
2026-05-05 20:24 41.72800 -78.98744 32828 ft 492 kts 143°
2026-05-05 20:25 41.67793 -78.92510 32818 ft 491 kts 143°
2026-05-05 20:25 41.62789 -78.86284 32794 ft 492 kts 143°
2026-05-05 20:26 41.57771 -78.80062 32798 ft 492 kts 143°
2026-05-05 20:26 41.52744 -78.73850 32807 ft 493 kts 143°
2026-05-05 20:27 41.47719 -78.67640 32805 ft 493 kts 143°
2026-05-05 20:27 41.42687 -78.61430 32804 ft 493 kts 143°
2026-05-05 20:28 41.37622 -78.55211 32805 ft 498 kts 143°
2026-05-05 20:28 41.32525 -78.48965 32804 ft 499 kts 143°
2026-05-05 20:29 41.27420 -78.42711 32806 ft 499 kts 143°
2026-05-05 20:29 41.22310 -78.36464 32829 ft 499 kts 143°
2026-05-05 20:30 41.17193 -78.30229 32811 ft 499 kts 143°
2026-05-05 20:30 41.12069 -78.23989 32822 ft 501 kts 143°
2026-05-05 20:31 41.06922 -78.17745 32822 ft 502 kts 143°
2026-05-05 20:31 41.01763 -78.11507 32819 ft 502 kts 143°
2026-05-05 20:32 40.96598 -78.05273 32823 ft 503 kts 143°
2026-05-05 20:32 40.91431 -77.99045 32815 ft 503 kts 143°
2026-05-05 20:33 40.86229 -77.92967 32822 ft 502 kts 145°
2026-05-05 20:33 40.80914 -77.86978 32827 ft 502 kts 145°
2026-05-05 20:34 40.75599 -77.80987 32795 ft 503 kts 145°
2026-05-05 20:34 40.70301 -77.74965 32792 ft 503 kts 145°
2026-05-05 20:35 40.64994 -77.68930 32792 ft 505 kts 144°
2026-05-05 20:35 40.59674 -77.62900 32795 ft 505 kts 144°
2026-05-05 20:36 40.54347 -77.56883 32786 ft 505 kts 144°
2026-05-05 20:36 40.49011 -77.50868 32798 ft 505 kts 144°
2026-05-05 20:37 40.43672 -77.44854 32785 ft 506 kts 144°
2026-05-05 20:37 40.38316 -77.38845 32804 ft 507 kts 144°
2026-05-05 20:38 40.32946 -77.32833 32811 ft 508 kts 144°
2026-05-05 20:38 40.27567 -77.26825 32824 ft 508 kts 144°
2026-05-05 20:39 40.22189 -77.20830 32824 ft 508 kts 144°
2026-05-05 20:39 40.16795 -77.14837 32836 ft 509 kts 144°
2026-05-05 20:40 40.11400 -77.08849 32079 ft 511 kts 143°
2026-05-05 20:40 40.08674 -77.05828 30899 ft 515 kts 143°
2026-05-05 20:40 40.05949 -77.02811 29920 ft 511 kts 143°
2026-05-05 20:40 40.03251 -76.99822 28786 ft 507 kts 143°
2026-05-05 20:41 40.00566 -76.96849 27539 ft 505 kts 143°
2026-05-05 20:41 39.97890 -76.93890 26254 ft 505 kts 143°
2026-05-05 20:41 39.95213 -76.90931 25134 ft 501 kts 143°
2026-05-05 20:41 39.92563 -76.88011 24108 ft 497 kts 143°
2026-05-05 20:42 39.89937 -76.85122 23160 ft 492 kts 143°
2026-05-05 20:42 39.87338 -76.82264 22203 ft 486 kts 143°
2026-05-05 20:42 39.84771 -76.79442 21342 ft 480 kts 143°
2026-05-05 20:42 39.82239 -76.76664 20531 ft 473 kts 143°
2026-05-05 20:43 39.79736 -76.73925 19763 ft 467 kts 144°
2026-05-05 20:43 39.77260 -76.71224 19020 ft 462 kts 144°
2026-05-05 20:43 39.74812 -76.68550 18308 ft 457 kts 144°
2026-05-05 20:43 39.72361 -76.65973 17531 ft 450 kts 149°
2026-05-05 20:44 39.69725 -76.63993 16777 ft 439 kts 160°
2026-05-05 20:44 39.66886 -76.62683 16020 ft 429 kts 171°
2026-05-05 20:44 39.63980 -76.62076 15304 ft 419 kts 181°
2026-05-05 20:44 39.61096 -76.62136 14613 ft 411 kts 189°
2026-05-05 20:45 39.55425 -76.62681 13237 ft 406 kts 188°
2026-05-05 20:45 39.52621 -76.62934 12568 ft 401 kts 188°
2026-05-05 20:45 39.49863 -76.63177 11981 ft 394 kts 188°
2026-05-05 20:46 39.47173 -76.63410 11742 ft 379 kts 188°
2026-05-05 20:46 39.44564 -76.63637 11643 ft 373 kts 189°
2026-05-05 20:46 39.41980 -76.63869 11497 ft 371 kts 189°
2026-05-05 20:46 39.39410 -76.64103 11344 ft 370 kts 189°
2026-05-05 20:47 39.36848 -76.64337 11198 ft 369 kts 189°
2026-05-05 20:47 39.34326 -76.64566 11030 ft 356 kts 189°
2026-05-05 20:47 39.31892 -76.64783 10873 ft 350 kts 189°
2026-05-05 20:47 39.29457 -76.65003 10740 ft 350 kts 189°
2026-05-05 20:48 39.27024 -76.65224 10591 ft 350 kts 189°
2026-05-05 20:48 39.24606 -76.65440 10440 ft 347 kts 189°
2026-05-05 20:48 39.22201 -76.65652 10301 ft 346 kts 189°
2026-05-05 20:48 39.19808 -76.65869 10150 ft 344 kts 190°
2026-05-05 20:49 39.17511 -76.66514 10011 ft 333 kts 206°
2026-05-05 20:49 39.15542 -76.67998 9990 ft 326 kts 223°
2026-05-05 20:49 39.13866 -76.69953 9993 ft 325 kts 225°
2026-05-05 20:49 39.12206 -76.71929 10029 ft 325 kts 225°
2026-05-05 20:50 39.10543 -76.73905 10028 ft 326 kts 225°
2026-05-05 20:50 39.09417 -76.75242 10025 ft 326 kts 225°
2026-05-05 20:50 39.07214 -76.77855 10026 ft 326 kts 225°
2026-05-05 20:50 39.05546 -76.79831 10027 ft 326 kts 225°
2026-05-05 20:51 39.03887 -76.81792 10021 ft 318 kts 225°
2026-05-05 20:51 39.02308 -76.83645 10015 ft 295 kts 225°
2026-05-05 20:51 39.00869 -76.85327 9967 ft 266 kts 225°
2026-05-05 20:51 38.99541 -76.86883 9590 ft 253 kts 225°
2026-05-05 20:52 38.98308 -76.88474 8894 ft 249 kts 234°
2026-05-05 20:52 38.97513 -76.90433 8193 ft 248 kts 252°
2026-05-05 20:52 38.97273 -76.92635 7490 ft 252 kts 268°
2026-05-05 20:52 38.97361 -76.94893 6774 ft 254 kts 268°
2026-05-05 20:53 38.97443 -76.97164 6084 ft 255 kts 267°
2026-05-05 20:53 38.97522 -76.99432 5390 ft 254 kts 267°
2026-05-05 20:53 38.97781 -77.01681 4742 ft 258 kts 282°
2026-05-05 20:53 38.98592 -77.03759 4059 ft 266 kts 301°
2026-05-05 20:54 38.99891 -77.05484 3376 ft 270 kts 311°
2026-05-05 20:54 39.00752 -77.06609 3126 ft 258 kts 299°
2026-05-05 20:54 39.01389 -77.08538 3010 ft 217 kts 267°
2026-05-05 20:54 39.01103 -77.10307 3009 ft 200 kts 233°
2026-05-05 20:55 39.00195 -77.11626 3009 ft 195 kts 221°
2026-05-05 20:55 38.99206 -77.12717 3008 ft 181 kts 218°
2026-05-05 20:55 38.98250 -77.13661 3041 ft 164 kts 217°
2026-05-05 20:55 38.97355 -77.14490 3015 ft 155 kts 207°
2026-05-05 20:56 38.96306 -77.14728 2863 ft 159 kts 175°
2026-05-05 20:56 38.95301 -77.14044 2621 ft 171 kts 147°
2026-05-05 20:56 38.94410 -77.13045 2368 ft 169 kts 147°
2026-05-05 20:56 38.93563 -77.12084 2126 ft 156 kts 146°
2026-05-05 20:57 38.92449 -77.11114 1870 ft 140 kts 156°
2026-05-05 20:57 38.91914 -77.10672 1749 ft 136 kts 155°
2026-05-05 20:57 38.91151 -77.09958 1562 ft 143 kts 142°
2026-05-05 20:57 38.90638 -77.08799 1364 ft 155 kts 117°
2026-05-05 20:58 38.90290 -77.07492 1119 ft 152 kts 119°
2026-05-05 20:58 38.89762 -77.06396 896 ft 140 kts 140°
2026-05-05 20:58 38.89059 -77.05615 759 ft 130 kts 150°
2026-05-05 20:58 38.88370 -77.04883 590 ft 130 kts 149°
2026-05-05 20:59 38.87628 -77.04203 365 ft 131 kts 158°
2026-05-05 20:59 38.86771 -77.03938 206 ft 128 kts 176°
2026-05-05 20:59 38.85898 -77.03850 35 ft 123 kts 178°
2026-05-05 20:59 38.85143 -77.03776 27 ft 91 kts 176°
2026-05-05 21:00 38.84906 -77.03772 26 ft 15 kts 208°
2026-05-05 21:00 38.84877 -77.03865 24 ft 11 kts 264°
2026-05-05 21:00 38.84900 -77.03950 24 ft 11 kts 337°
2026-05-05 21:00 38.84975 -77.03959 34 ft 8 kts 356°
2026-05-05 21:01 38.85027 -77.03964 24 ft 5 kts 355°
2026-05-05 21:01 38.85065 -77.03968 24 ft 7 kts 355°
2026-05-05 21:01 38.85117 -77.03987 24 ft 8 kts 321°
2026-05-05 21:01 38.85155 -77.04035 24 ft 7 kts 317°
2026-05-05 21:02 38.85168 -77.04051 24 ft 0 kts 316°